Regional Weather Roundup
Issued by NWS

Home | Current Version | Previous Version | Graphics & Text | Print | Product List | Glossary On
Versions: 1 2 3 4 5 6 7 8 9 10 11 12 13 14 15 16 17 18 19 20 21 22 23 24 25 26 27 28 29 30 31 32 33 34 35 36 37 38 39 40 41 42 43 44 45 46 47 48 49 50
000
ASUS43 KOAX 260902
RWRNE

WEATHER ROUNDUP FOR NEBRASKA
NATIONAL WEATHER SERVICE OMAHA NE
400 AM CDT SUN MAR 26 2017

NOTES: SATELLITE DATA IS BEING USED TO AUGMENT CLOUD COVER ABOVE
       12000 FEET.
       "FAIR" INDICATES FEW OR NO CLOUDS BELOW 12,000 FEET WITH NO
       SIGNIFICANT WEATHER AND/OR OBSTRUCTIONS TO VISIBILITY.

  * THESE STATIONS DO NOT REPORT WEATHER SUCH AS RAIN...SNOW OR FOG.

NEZ001>004-019>022-054>056-261000-
NEBRASKA PANHANDLE

CITY           SKY/WX    TMP DP  RH WIND       PRES   REMARKS
SCOTTSBLUFF    PTCLDY    44  30  57 E8        29.80F
ALLIANCE       CLOUDY    39  29  67 CALM      29.81S
CHADRON        CLOUDY    49  32  52 SW5       29.79F
KIMBALL        LGT RAIN  44  36  73 SW15      29.83S
SIDNEY         CLOUDY    40  30  67 S6        29.82F
$$

NEZ057>060-069>072-079>082-261000-
SOUTHWEST NEBRASKA

CITY           SKY/WX    TMP DP  RH WIND       PRES   REMARKS
NORTH PLATTE   CLOUDY    40  37  89 CALM      29.87F
IMPERIAL       FOG       38  38 100 SE8       29.84F VSB 1/4 WCI  32
LEXINGTON      CLOUDY    41  39  95 S5        29.89F FOG
MCCOOK         FOG       40  40 100 SE7       29.88F VSB 1/2
OGALLALA       CLOUDY    41  40  96 SE3       29.84F FOG
$$

NEZ005>010-023>029-035>040-094-261000-
NORTH CENTRAL NEBRASKA

CITY           SKY/WX    TMP DP  RH WIND       PRES   REMARKS
VALENTINE      CLOUDY    40  37  89 S8        29.87S WCI  34
AINSWORTH      CLOUDY    39  39 100 S5        29.88S FOG
BROKEN BOW     CLOUDY    40  40 100 CALM      29.87F
O`NEILL        FOG       39  39  99 CALM      29.90S VSB 1/4
ORD            CLOUDY    39  37  92 W3        29.89F FOG
THEDFORD       CLOUDY    39  38  99 SW5       29.87S FOG
$$

NEZ041-046>049-061>064-073>077-083>087-261000-
SOUTH CENTRAL NEBRASKA

CITY           SKY/WX    TMP DP  RH WIND       PRES   REMARKS
GRAND ISLAND   CLOUDY    38  38 100 NW3       29.91S FOG
AURORA         CLOUDY    38  38 100 CALM      29.90S FOG
HASTINGS       CLOUDY    39  38  96 CALM      29.91S FOG
HEBRON         CLOUDY    39  38  97 CALM      29.91S FOG
HOLDREGE       CLOUDY    39  38  97 CALM      29.89F FOG
KEARNEY *      CLOUDY    39  36  87 CALM      29.90F
YORK           CLOUDY    39  39 100 CALM      29.90S FOG
$$

NEZ011>018-030>034-042>045-261000-
NORTHEAST NEBRASKA

CITY           SKY/WX    TMP DP  RH WIND       PRES   REMARKS
NORFOLK        CLOUDY    37  35  92 VRB6      29.89R WCI  32
ALBION         CLOUDY    39  38  94 CALM      29.90S FOG
BLAIR          CLOUDY    39  38  97 N8        29.88S FOG     WCI  34
FREMONT        CLOUDY    39  39 100 N3        29.89F FOG
TEKAMAH        CLOUDY    40  38  93 N9        29.90F FOG     WCI  34
WAYNE          FOG       38  37  99 NE6       29.89F VSB 1/4 WCI  33
$$

NEZ050>053-065>068-078-088>093-261000-
SOUTHEAST NEBRASKA

CITY           SKY/WX    TMP DP  RH WIND       PRES   REMARKS
LINCOLN        CLOUDY    40  39  97 N5        29.91S FOG
OMAHA EPPLEY   CLOUDY    41  36  82 N8        29.89F
BEATRICE       CLOUDY    40  40  99 N5        29.89F FOG
FALLS CITY     CLOUDY    42  40  92 NW6       29.88S
NEBRASKA CITY  CLOUDY    40  40 100 N6        29.88S FOG
PLATTSMOUTH    CLOUDY    40  38  91 CALM      29.88F
$$

NEZ044-045-051>053-067-261000-
OMAHA AREA

CITY           SKY/WX    TMP DP  RH WIND       PRES   REMARKS
OMAHA EPPLEY   CLOUDY    41  36  82 N8        29.89F
BLAIR          CLOUDY    39  38  97 N8        29.88S FOG     WCI  34
FREMONT        CLOUDY    39  39 100 N3        29.89F FOG
MILLARD        CLOUDY    42  40  93 N5        29.89F
OFFUTT AFB     CLOUDY    41  38  90 N6        29.88F
PLATTSMOUTH    CLOUDY    40  38  91 CALM      29.88F
WAHOO          CLOUDY    39  38  95 N6        29.90R FOG     WCI  35
$$




USA.gov is the U.S. government's official web portal to all federal, state and local government web resources and services.